Location: Newark
(52.3500°N, 175.9667°E)
Time: 09:41:06
(UTC+00:00)

Transit 4A - Pass Details

Date: 24 April 2021
Orbit: 870 x 974 km, 66.8° (Epoch: 07 May)

Event Time Altitude Azimuth Distance (km) Brightness Sun altitude
Rises 13:36:28 0° 268° (W) 3,598 - -22.2°
Exits shadow 13:37:20 - 271° (W) 3,308 10.6 -22.2°
Reaches altitude 10° 13:39:27 10° 281° (W) 2,638 10.1 -22.1°
Maximum altitude 13:44:33 27° 337° (NNW) 1,700 9.7 -21.7°
Drops below altitude 10° 13:49:34 10° 34° (NE) 2,583 11.4 -21.4°
Sets 13:52:28 0° 47° (NE) 3,509 12.1 -21.2°
